Location: Nitra
(0.0000°N, 18.0833°E)
Time: 08:23:15
(UTC+01:00)

Meteor 2-16 Rocket - Pass Details

Date: 25 September 2022
Orbit: 941 x 957 km, 82.6° (Epoch: 28 November)

Event Time Altitude Azimuth Distance (km) Brightness Sun altitude
Rises 20:02:58 0° 174° (S) 3,605 7.4 -20.9°
Reaches altitude 10° 20:05:32 10° 169° (SSE) 2,660 6.7 -21.6°
Maximum altitude 20:11:25 52° 93° (E) 1,158 4.5 -23.0°
Enters shadow 20:13:39 35° 39° (NE) 1,474 5.1 -23.6°
Exits shadow 20:18:17 - 16° (NNE) 3,020 6.9 -24.7°
Sets 20:19:51 0° 14° (NNE) 3,606 7.3 -25.1°
